KPAWILLO7 Weather Reports


Display with metric or nautical units.
time (UTC)temp
F
wind
direction
speed
MPH
gust
MPH
rain 1hr
in
rain 24hr
in
rain mn
in
humidity
%
barometer
mb
20260505121503 64 2 4.0 7.0 0.00 0.00 0.00 62 1012.1
20260505121003 64 2 5.0 7.0 0.00 0.00 0.00 62 1012.2
20260505120503 64 2 5.0 7.0 0.00 0.00 0.00 62 1012.3
20260505120004 64 1 4.0 6.0 0.00 0.00 0.00 62 1012.3
20260505115504 63 1 4.0 7.0 0.00 0.00 0.00 63 1012.2
20260505115003 63 2 4.0 7.0 0.00 0.00 0.00 64 1012.2
20260505114504 62 1 4.0 7.0 0.00 0.00 0.00 65 1012.2
20260505114004 62 1 4.0 4.0 0.00 0.00 0.00 66 1012.2
20260505113503 62 1 4.0 11.0 0.00 0.00 0.00 66 1012.2
20260505113004 61 1 4.0 11.0 0.00 0.00 0.00 67 1012.1
20260505112505 61 1 4.0 9.0 0.00 0.00 0.00 67 1012.0
20260505112003 61 2 5.0 9.0 0.00 0.00 0.00 67 1011.9
20260505111504 61 1 4.0 5.0 0.00 0.00 0.00 68 1011.9
20260505111004 60 2 4.0 7.0 0.00 0.00 0.00 69 1011.9
20260505102003 61 2 4.0 7.0 0.00 0.00 0.00 68 1011.7
20260505101504 61 1 4.0 7.0 0.00 0.00 0.00 68 1011.6
20260505101003 61 2 4.0 6.0 0.00 0.00 0.00 68 1011.5
20260505100503 61 1 4.0 6.0 0.00 0.00 0.00 67 1011.5
20260505100003 61 1 4.0 6.0 0.00 0.00 0.00 67 1011.4
20260505095504 61 1 4.0 5.0 0.00 0.00 0.00 67 1011.4
20260505095003 61 1 4.0 5.0 0.00 0.00 0.00 67 1011.3
20260505094503 61 1 3.0 4.0 0.00 0.00 0.00 68 1011.2
20260505094004 61 1 3.0 4.0 0.00 0.00 0.00 68 1011.2
20260505093503 60 2 3.0 5.0 0.00 0.00 0.00 68 1011.2
20260505093003 60 1 4.0 5.0 0.00 0.00 0.00 68 1011.2
20260505092503 60 1 3.0 5.0 0.00 0.00 0.00 69 1011.2
20260505091503 60 1 4.0 8.0 0.00 0.00 0.00 70 1011.3
20260505091003 59 2 3.0 5.0 0.00 0.00 0.00 70 1011.3
20260505090503 59 2 3.0 5.0 0.00 0.00 0.00 70 1011.1
20260505090004 59 2 3.0 5.0 0.00 0.00 0.00 70 1011.1
20260505085503 59 1 3.0 3.0 0.00 0.00 0.00 70 1011.2
20260505084504 60 1 1.0 3.0 0.00 0.00 0.00 69 1011.3
20260505084003 60 1 0.0 1.0 0.00 0.00 0.00 69 1011.3
20260505083503 60 1 1.0 2.0 0.00 0.00 0.00 68 1011.2
20260505083003 60 1 1.0 3.0 0.00 0.00 0.00 68 1011.3
20260505082503 60 1 2.0 4.0 0.00 0.00 0.00 68 1011.3
20260505081504 60 1 2.0 4.0 0.00 0.00 0.00 68 1011.2
20260505080504 60 1 4.0 9.0 0.00 0.00 0.00 68 1011.3
20260505080004 60 1 3.0 4.0 0.00 0.00 0.00 68 1011.3
20260505075503 60 1 3.0 4.0 0.00 0.00 0.00 68 1011.3
20260505075004 60 1 3.0 4.0 0.00 0.00 0.00 67 1011.4
20260505074504 60 2 4.0 6.0 0.00 0.00 0.00 67 1011.3
20260505074003 60 1 4.0 6.0 0.00 0.00 0.00 67 1011.3
20260505073503 60 2 3.0 4.0 0.00 0.00 0.00 67 1011.4
20260505073003 60 1 3.0 6.0 0.00 0.00 0.00 67 1011.3
20260505072504 60 2 3.0 6.0 0.00 0.00 0.00 66 1011.2
20260505071503 60 1 3.0 4.0 0.00 0.00 0.00 66 1011.2
20260505071003 61 2 4.0 4.0 0.00 0.00 0.00 66 1011.2
20260505070503 61 1 4.0 8.0 0.00 0.00 0.00 65 1011.2
20260505070003 61 2 4.0 8.0 0.00 0.00 0.00 65 1011.2
20260505065503 61 1 4.0 6.0 0.00 0.00 0.00 65 1011.2
20260505065003 61 2 4.0 8.0 0.00 0.00 0.00 65 1011.1
20260505063503 61 1 4.0 9.0 0.00 0.00 0.00 65 1011.0
20260505063003 61 2 4.0 6.0 0.00 0.00 0.00 65 1011.1
20260505062504 61 1 4.0 10.0 0.00 0.00 0.00 64 1011.1
20260505062003 61 1 4.0 10.0 0.00 0.00 0.00 64 1011.1
20260505061003 61 1 2.0 4.0 0.00 0.00 0.00 64 1011.1
20260505060504 61 1 3.0 6.0 0.00 0.00 0.00 63 1011.2
20260505060004 61 2 3.0 6.0 0.00 0.00 0.00 63 1011.2
20260505055503 61 1 3.0 6.0 0.00 0.00 0.00 63 1011.1
20260505055004 61 1 3.0 8.0 0.00 0.00 0.00 62 1011.1
20260505054504 62 1 3.0 8.0 0.00 0.00 0.00 62 1011.2
20260505054003 62 1 3.0 5.0 0.00 0.00 0.00 62 1011.2
20260505053004 62 1 3.0 4.0 0.00 0.00 0.00 61 1011.3
20260505052504 62 1 2.0 4.0 0.00 0.00 0.00 61 1011.3
20260505052003 62 1 2.0 3.0 0.00 0.00 0.00 61 1011.3
20260505051503 62 1 2.0 3.0 0.00 0.00 0.00 61 1011.3
20260505051005 62 1 2.0 3.0 0.00 0.00 0.00 61 1011.4
20260505041004 62 1 2.0 2.0 0.00 0.00 0.00 59 1011.2
20260505040503 62 2 1.0 2.0 0.00 0.00 0.00 59 1011.2
20260505040005 62 1 1.0 1.0 0.00 0.00 0.00 58 1011.2
20260505035503 62 1 2.0 4.0 0.00 0.00 0.00 57 1011.2
20260505035003 62 1 2.0 4.0 0.00 0.00 0.00 56 1011.2
20260505034503 62 1 2.0 2.0 0.00 0.00 0.00 55 1011.3
20260505034004 62 1 2.0 3.0 0.00 0.00 0.00 55 1011.2
20260505033503 63 1 2.0 3.0 0.00 0.00 0.00 53 1011.3
20260505032504 63 1 2.0 2.0 0.00 0.00 0.00 51 1011.3
20260505032003 63 1 2.0 2.0 0.00 0.00 0.00 50 1011.3
20260505031003 63 2 2.0 2.0 0.00 0.00 0.00 49 1011.3
20260505030504 64 1 2.0 2.0 0.00 0.00 0.00 48 1011.4
20260505030004 64 1 2.0 2.0 0.00 0.00 0.00 48 1011.3
20260505025504 64 1 2.0 2.0 0.00 0.00 0.00 47 1011.4
20260505025004 64 1 2.0 3.0 0.00 0.00 0.00 47 1011.4
20260505024504 64 1 2.0 3.0 0.00 0.00 0.00 47 1011.6
20260505023504 64 1 2.0 4.0 0.00 0.00 0.00 46 1011.6
20260505023003 64 1 1.0 2.0 0.00 0.00 0.00 46 1011.6
20260505022503 65 1 1.0 2.0 0.00 0.00 0.00 46 1011.7
20260505022003 65 1 1.0 2.0 0.00 0.00 0.00 45 1011.6
20260505021504 65 1 1.0 2.0 0.00 0.00 0.00 45 1011.6
20260505021004 65 1 1.0 1.0 0.00 0.00 0.00 45 1011.6
20260505020503 65 1 1.0 2.0 0.00 0.00 0.00 45 1011.5
20260505020003 65 1 1.0 2.0 0.00 0.00 0.00 45 1011.5
20260505015504 66 1 1.0 2.0 0.00 0.00 0.00 45 1011.5
20260505015003 66 1 1.0 2.0 0.00 0.00 0.00 45 1011.6
20260505014503 66 1 1.0 3.0 0.00 0.00 0.00 45 1011.5
20260505014003 66 1 2.0 6.0 0.00 0.00 0.00 44 1011.6
20260505013504 66 1 2.0 6.0 0.00 0.00 0.00 44 1011.6
20260505013003 66 1 2.0 2.0 0.00 0.00 0.00 44 1011.6
20260505012503 66 1 2.0 2.0 0.00 0.00 0.00 44 1011.5
20260505011504 66 1 1.0 1.0 0.00 0.00 0.00 43 1011.3
20260505011004 66 1 1.0 1.0 0.00 0.00 0.00 43 1011.3
20260505010004 67 1 1.0 1.0 0.00 0.00 0.00 42 1011.2
20260505005503 67 1 1.0 1.0 0.00 0.00 0.00 41 1011.1
20260505005004 67 1 1.0 3.0 0.00 0.00 0.00 41 1011.0
20260505004504 67 1 1.0 3.0 0.00 0.00 0.00 41 1010.9
20260505004003 67 1 1.0 2.0 0.00 0.00 0.00 40 1010.9
20260505003503 68 1 1.0 2.0 0.00 0.00 0.00 39 1010.9
20260505002504 68 1 2.0 3.0 0.00 0.00 0.00 39 1010.8
20260505002004 68 1 3.0 6.0 0.00 0.00 0.00 39 1010.7
20260505001503 68 2 3.0 6.0 0.00 0.00 0.00 39 1010.7
20260505000504 68 2 3.0 6.0 0.00 0.00 0.00 38 1010.8
20260505000004 69 2 3.0 6.0 0.00 0.00 0.00 38 1010.8
20260504235503 69 2 2.0 6.0 0.00 0.00 0.00 37 1010.7
20260504234505 69 1 3.0 5.0 0.00 0.00 0.00 37 1010.6
20260504234003 70 2 3.0 5.0 0.00 0.00 0.00 36 1010.6
20260504233503 70 1 3.0 5.0 0.00 0.00 0.00 36 1010.5
20260504233004 70 2 3.0 5.0 0.00 0.00 0.00 36 1010.5
20260504232503 70 1 3.0 10.0 0.00 0.00 0.00 35 1010.4
20260504232003 70 2 5.0 11.0 0.00 0.00 0.00 35 1010.4
20260504231503 70 2 5.0 11.0 0.00 0.00 0.00 35 1010.4
20260504231004 70 1 4.0 11.0 0.00 0.00 0.00 36 1010.4
20260504230503 70 1 5.0 5.0 0.00 0.00 0.00 35 1010.4
20260504230003 70 1 4.0 9.0 0.00 0.00 0.00 35 1010.4
20260504225504 71 2 4.0 10.0 0.00 0.00 0.00 35 1010.3
20260504225003 71 2 4.0 11.0 0.00 0.00 0.00 34 1010.4
20260504224503 71 1 5.0 11.0 0.00 0.00 0.00 34 1010.4
20260504224004 71 1 5.0 11.0 0.00 0.00 0.00 34 1010.5
20260504223503 71 1 5.0 11.0 0.00 0.00 0.00 34 1010.5
20260504222503 71 331 5.0 11.0 0.00 0.00 0.00 34 1010.5
20260504222003 71 194 4.0 7.0 0.00 0.00 0.00 34 1010.5
20260504221003 72 196 5.0 6.0 0.00 0.00 0.00 34 1010.5
20260504220503 71 311 4.0 7.0 0.00 0.00 0.00 34 1010.5
20260504215504 71 219 6.0 9.0 0.00 0.00 0.00 33 1010.6
20260504215003 71 195 5.0 9.0 0.00 0.00 0.00 35 1010.7
20260504214003 72 178 5.0 7.0 0.00 0.00 0.00 34 1010.7
20260504213504 72 228 5.0 7.0 0.00 0.00 0.00 33 1010.7
20260504213003 72 1 6.0 9.0 0.00 0.00 0.00 34 1010.8
20260504212503 72 2 8.0 11.0 0.00 0.00 0.00 33 1010.7
20260504212003 72 1 7.0 11.0 0.00 0.00 0.00 33 1010.8
20260504211504 72 356 7.0 11.0 0.00 0.00 0.00 32 1010.7
20260504211004 72 356 7.0 11.0 0.00 0.00 0.00 31 1010.7
20260504210503 73 1 5.0 8.0 0.00 0.00 0.00 32 1010.7
20260504210004 72 1 6.0 7.0 0.00 0.00 0.00 32 1010.7
20260504205504 72 1 7.0 16.0 0.00 0.00 0.00 31 1010.7
20260504205003 72 2 7.0 16.0 0.00 0.00 0.00 31 1010.7
20260504204003 72 356 7.0 16.0 0.00 0.00 0.00 32 1010.8
20260504203503 72 335 6.0 16.0 0.00 0.00 0.00 31 1010.8
20260504203004 72 351 5.0 9.0 0.00 0.00 0.00 32 1010.8
20260504202504 72 2 5.0 12.0 0.00 0.00 0.00 31 1010.8
20260504202003 72 2 6.0 12.0 0.00 0.00 0.00 32 1010.9
20260504201503 72 1 6.0 12.0 0.00 0.00 0.00 31 1010.8
20260504201004 73 2 7.0 10.0 0.00 0.00 0.00 31 1010.9
20260504200503 72 1 6.0 10.0 0.00 0.00 0.00 31 1011.0
20260504200003 72 2 7.0 11.0 0.00 0.00 0.00 31 1010.8
20260504195503 72 1 7.0 11.0 0.00 0.00 0.00 32 1010.8
20260504195004 72 1 7.0 11.0 0.00 0.00 0.00 31 1011.0
20260504194503 72 1 6.0 11.0 0.00 0.00 0.00 32 1010.9
20260504194003 72 1 4.0 9.0 0.00 0.00 0.00 32 1011.0
20260504193504 72 2 5.0 7.0 0.00 0.00 0.00 31 1011.1
20260504193003 72 2 5.0 12.0 0.00 0.00 0.00 32 1011.0
20260504192503 72 2 4.0 12.0 0.00 0.00 0.00 31 1011.2
20260504192003 72 2 4.0 7.0 0.00 0.00 0.00 31 1011.2
20260504191504 71 1 6.0 9.0 0.00 0.00 0.00 32 1011.3
20260504190503 72 1 7.0 9.0 0.00 0.00 0.00 32 1011.5
20260504190004 71 1 7.0 10.0 0.00 0.00 0.00 32 1011.5
20260504185503 71 1 7.0 10.0 0.00 0.00 0.00 32 1011.6
20260504185003 71 2 7.0 7.0 0.00 0.00 0.00 31 1011.7
20260504184004 70 1 6.0 9.0 0.00 0.00 0.00 31 1011.8
20260504183503 70 2 7.0 9.0 0.00 0.00 0.00 32 1011.9
20260504183004 71 2 6.0 9.0 0.00 0.00 0.00 32 1011.9
20260504182503 71 2 6.0 9.0 0.00 0.00 0.00 32 1011.9
20260504182004 71 2 6.0 9.0 0.00 0.00 0.00 33 1012.1
20260504181504 71 2 6.0 8.0 0.00 0.00 0.00 32 1012.1
20260504181003 70 1 8.0 10.0 0.00 0.00 0.00 34 1012.1
20260504180504 70 1 7.0 10.0 0.00 0.00 0.00 34 1012.2
20260504180004 70 1 6.0 10.0 0.00 0.00 0.00 34 1012.4
20260504175503 70 1 5.0 6.0 0.00 0.00 0.00 33 1012.4
20260504175003 70 2 6.0 9.0 0.00 0.00 0.00 33 1012.4
20260504174505 69 1 7.0 13.0 0.00 0.00 0.00 33 1012.5
20260504174004 69 2 8.0 13.0 0.00 0.00 0.00 33 1012.6
20260504173504 69 1 7.0 10.0 0.00 0.00 0.00 32 1012.7
20260504173004 70 2 8.0 13.0 0.00 0.00 0.00 34 1012.7
20260504172503 69 2 9.0 13.0 0.00 0.00 0.00 35 1012.8
20260504172004 69 2 7.0 10.0 0.00 0.00 0.00 33 1012.8
20260504171003 69 2 5.0 13.0 0.00 0.00 0.00 33 1012.9
20260504150503 64 1 3.0 6.0 0.00 0.00 0.00 42 1014.4
20260504141003 60 2 5.0 9.0 0.00 0.00 0.00 52 1014.5
20260504140504 60 2 4.0 9.0 0.00 0.00 0.00 53 1014.6
20260504130504 56 2 5.0 6.0 0.00 0.00 0.00 63 1014.9